• In Hungary
  • List of Countries
  • For 7 days
  • Water Temperature
  • Satellite Maps
  • Weather Map
  • News
  • Weather Widgets
  • user-avatar
    Login

    Hourly Weather Burgos

    Today, 24 January, Wednesday

    Time Temperature Precipitation Wind Pressure Humidity
    00:00 +5°C° 0 mm 1 mps 689 mmHg 79%
    01:00 +5°C° 0 mm 1 mps 689 mmHg 77%
    02:00 +5°C° 0 mm 1 mps 688 mmHg 76%
    03:00 +3°C° 0 mm 2 mps 688 mmHg 75%
    04:00 +3°C° 0 mm 2 mps 688 mmHg 74%
    05:00 +3°C° 0 mm 2 mps 687 mmHg 74%
    06:00 +3°C° 0 mm 2 mps 687 mmHg 74%
    07:00 +4°C° 0 mm 2 mps 687 mmHg 73%
    08:00 +4°C° 0 mm 2 mps 688 mmHg 71%
    09:00 +5°C° 0 mm 2 mps 688 mmHg 70%
    10:00 +7°C° 0 mm 2 mps 688 mmHg 64%
    11:00 +8°C° 0 mm 3 mps 688 mmHg 57%
    12:00 +10°C° 0 mm 3 mps 688 mmHg 51%
    13:00 +11°C° 0 mm 4 mps 688 mmHg 49%
    14:00 +11°C° 0 mm 4 mps 688 mmHg 47%
    15:00 +11°C° 0 mm 4 mps 687 mmHg 44%
    16:00 +8°C° 0 mm 4 mps 687 mmHg 50%
    17:00 +8°C° 0 mm 3 mps 686 mmHg 56%
    18:00 +6°C° 0 mm 2 mps 686 mmHg 61%
    19:00 +5°C° 0 mm 2 mps 686 mmHg 63%
    20:00 +5°C° 0 mm 2 mps 686 mmHg 64%
    21:00 +5°C° 0 mm 2 mps 686 mmHg 65%
    22:00 +4°C° 0 mm 3 mps 686 mmHg 68%
    23:00 +4°C° 0 mm 3 mps 686 mmHg 70%

    Tomorrow, 25 January, Thursday

    Time Temperature Precipitation Wind Pressure Humidity
    00:00 +4°C° 0 mm 3 mps 685 mmHg 72%
    01:00 +4°C° 0 mm 3 mps 685 mmHg 74%
    02:00 +4°C° 0 mm 3 mps 685 mmHg 76%
    03:00 +4°C° 0 mm 3 mps 684 mmHg 78%
    04:00 +4°C° 0.4 mm 3 mps 684 mmHg 79%
    05:00 +3°C° 0.4 mm 4 mps 683 mmHg 79%
    06:00 +3°C° 0.4 mm 4 mps 683 mmHg 79%
    07:00 +4°C° 1.5 mm 4 mps 683 mmHg 82%
    08:00 +4°C° 1.5 mm 4 mps 683 mmHg 85%
    09:00 +4°C° 1.5 mm 4 mps 683 mmHg 88%
    10:00 +4°C° 1.1 mm 4 mps 683 mmHg 87%
    11:00 +5°C° 1.1 mm 4 mps 683 mmHg 87%
    12:00 +5°C° 1.1 mm 4 mps 683 mmHg 86%
    13:00 +5°C° 0.7 mm 4 mps 683 mmHg 82%
    14:00 +5°C° 0.7 mm 4 mps 683 mmHg 79%
    15:00 +5°C° 0.7 mm 4 mps 682 mmHg 75%
    16:00 +4°C° 1 mm 4 mps 683 mmHg 78%
    17:00 +3°C° 1 mm 4 mps 683 mmHg 81%
    18:00 +2°C° 1 mm 3 mps 683 mmHg 84%
    19:00 +1°C° 0.2 mm 3 mps 683 mmHg 84%
    20:00 +2°C° 0.2 mm 2 mps 684 mmHg 85%
    21:00 +2°C° 0.2 mm 1 mps 684 mmHg 86%
    22:00 +2°C° 0 mm 1 mps 684 mmHg 87%
    23:00 -1°C° 0 mm 2 mps 684 mmHg 87%

    Day after tomorrow, 26 January, Friday

    Time Temperature Precipitation Wind Pressure Humidity
    00:00 -1°C° 0 mm 2 mps 684 mmHg 88%
    01:00 -1°C° 0 mm 2 mps 684 mmHg 88%
    02:00 -1°C° 0 mm 3 mps 685 mmHg 87%
    03:00 -1°C° 0 mm 3 mps 685 mmHg 86%
    04:00 -1°C° 0 mm 3 mps 685 mmHg 87%
    05:00 -1°C° 0 mm 3 mps 685 mmHg 88%
    06:00 -2°C° 0 mm 2 mps 685 mmHg 89%
    07:00 -1°C° 0 mm 2 mps 686 mmHg 88%
    08:00 +1°C° 0 mm 2 mps 686 mmHg 86%
    09:00 +1°C° 0 mm 2 mps 687 mmHg 84%
    10:00 +1°C° 0.2 mm 3 mps 687 mmHg 80%
    11:00 +1°C° 0.2 mm 4 mps 688 mmHg 76%
    12:00 +2°C° 0.2 mm 5 mps 688 mmHg 72%
    13:00 +2°C° 0.2 mm 6 mps 688 mmHg 72%
    14:00 +2°C° 0.2 mm 6 mps 688 mmHg 71%
    15:00 +3°C° 0.2 mm 6 mps 688 mmHg 71%
    16:00 +1°C° 0.1 mm 5 mps 688 mmHg 76%
    17:00 0°C° 0.1 mm 4 mps 689 mmHg 82%
    18:00 0°C° 0.1 mm 3 mps 689 mmHg 88%
    19:00 0°C° 0 mm 3 mps 689 mmHg 88%
    20:00 +1°C° 0 mm 3 mps 690 mmHg 88%
    21:00 +1°C° 0 mm 3 mps 691 mmHg 89%
    22:00 0°C° 0 mm 3 mps 691 mmHg 89%
    23:00 0°C° 0 mm 3 mps 691 mmHg 89%

    27 January, Saturday

    Time Temperature Precipitation Wind Pressure Humidity
    00:00 0°C° 0 mm 3 mps 691 mmHg 90%
    01:00 0°C° 0 mm 3 mps 691 mmHg 91%
    02:00 0°C° 0 mm 3 mps 690 mmHg 92%
    03:00 0°C° 0 mm 3 mps 690 mmHg 93%
    04:00 -1°C° 0.1 mm 2 mps 690 mmHg 93%
    05:00 -1°C° 0.1 mm 2 mps 690 mmHg 93%
    06:00 -1°C° 0.1 mm 2 mps 690 mmHg 93%
    07:00 +1°C° 0.2 mm 2 mps 691 mmHg 92%
    08:00 +1°C° 0.2 mm 3 mps 691 mmHg 91%
    09:00 +1°C° 0.2 mm 3 mps 692 mmHg 90%
    10:00 +1°C° 0.2 mm 4 mps 692 mmHg 87%
    11:00 +2°C° 0.2 mm 5 mps 692 mmHg 84%
    12:00 +3°C° 0.2 mm 6 mps 692 mmHg 81%
    13:00 +3°C° 0.1 mm 6 mps 692 mmHg 81%
    14:00 +3°C° 0.1 mm 6 mps 691 mmHg 81%
    15:00 +3°C° 0.1 mm 6 mps 691 mmHg 81%
    16:00 +3°C° 0 mm 6 mps 691 mmHg 84%
    17:00 +2°C° 0 mm 5 mps 691 mmHg 87%
    18:00 +2°C° 0 mm 5 mps 691 mmHg 90%
    19:00 +2°C° 0 mm 5 mps 692 mmHg 90%
    20:00 +1°C° 0 mm 5 mps 692 mmHg 90%
    21:00 +1°C° 0 mm 5 mps 693 mmHg 90%
    22:00 +1°C° 0 mm 4 mps 693 mmHg 90%
    23:00 0°C° 0 mm 4 mps 693 mmHg 90%

    28 January, Sunday

    Time Temperature Precipitation Wind Pressure Humidity
    00:00 +1°C° 0 mm 3 mps 693 mmHg 90%
    01:00 +1°C° 0 mm 3 mps 693 mmHg 90%
    02:00 0°C° 0 mm 3 mps 693 mmHg 90%
    03:00 0°C° 0 mm 3 mps 693 mmHg 90%
    04:00 0°C° 0 mm 3 mps 693 mmHg 89%
    05:00 -1°C° 0 mm 3 mps 693 mmHg 88%
    06:00 -1°C° 0 mm 3 mps 693 mmHg 87%
    07:00 0°C° 0 mm 3 mps 694 mmHg 84%
    08:00 0°C° 0 mm 3 mps 694 mmHg 80%
    09:00 0°C° 0 mm 4 mps 694 mmHg 77%
    10:00 +1°C° 0 mm 4 mps 694 mmHg 68%
    11:00 +4°C° 0 mm 4 mps 694 mmHg 59%
    12:00 +5°C° 0 mm 5 mps 695 mmHg 51%
    13:00 +6°C° 0 mm 5 mps 694 mmHg 51%
    14:00 +6°C° 0 mm 5 mps 694 mmHg 51%
    15:00 +6°C° 0 mm 5 mps 693 mmHg 51%
    16:00 +4°C° 0 mm 4 mps 693 mmHg 59%
    17:00 +1°C° 0 mm 4 mps 693 mmHg 66%
    18:00 +1°C° 0 mm 3 mps 693 mmHg 74%
    19:00 0°C° 0 mm 3 mps 693 mmHg 74%
    20:00 -1°C° 0 mm 3 mps 693 mmHg 74%
    21:00 -1°C° 0 mm 3 mps 694 mmHg 75%
    22:00 -1°C° 0 mm 2 mps 693 mmHg 72%
    23:00 -2°C° 0 mm 2 mps 693 mmHg 70%

    29 January, Monday

    Time Temperature Precipitation Wind Pressure Humidity
    00:00 -2°C° 0 mm 2 mps 693 mmHg 68%
    01:00 -2°C° 0 mm 2 mps 693 mmHg 65%
    02:00 -2°C° 0 mm 2 mps 693 mmHg 63%
    03:00 0°C° 0 mm 1 mps 693 mmHg 61%
    04:00 +1°C° 0 mm 1 mps 693 mmHg 60%
    05:00 +1°C° 0 mm 1 mps 693 mmHg 59%
    06:00 +1°C° 0 mm 1 mps 693 mmHg 58%
    07:00 +2°C° 0 mm 1 mps 693 mmHg 57%
    08:00 +3°C° 0 mm 1 mps 693 mmHg 56%
    09:00 +4°C° 0 mm 1 mps 694 mmHg 55%
    10:00 +6°C° 0 mm 1 mps 694 mmHg 53%
    11:00 +8°C° 0 mm 1 mps 694 mmHg 52%
    12:00 +10°C° 0 mm 1 mps 694 mmHg 50%
    13:00 +10°C° 0 mm 1 mps 693 mmHg 51%
    14:00 +10°C° 0 mm 1 mps 693 mmHg 52%
    15:00 +11°C° 0 mm 1 mps 692 mmHg 53%
    16:00 +9°C° 0 mm 1 mps 692 mmHg 60%
    17:00 +7°C° 0 mm 1 mps 691 mmHg 67%
    18:00 +5°C° 0 mm 1 mps 691 mmHg 74%
    19:00 +5°C° 0 mm 1 mps 691 mmHg 76%
    20:00 +4°C° 0 mm 1 mps 691 mmHg 77%
    21:00 +4°C° 0 mm 1 mps 692 mmHg 78%
    22:00 +4°C° 0 mm 1 mps 691 mmHg 79%
    23:00 +3°C° 0 mm 1 mps 691 mmHg 80%
    Show more